TimeAKST,TemperatureF,Dew PointF,Humidity,Sea Level PressureIn,VisibilityMPH,Wind Direction,Wind SpeedMPH,Gust SpeedMPH,PrecipitationIn,Events,Conditions,WindDirDegrees,DateUTC
12:16 AM,41.0,41.0,100,29.55,10.0,SSE,13.8,-,N/A,,Overcast,150,2013-01-12 09:16:00
12:36 AM,41.0,41.0,100,29.53,10.0,SSE,17.3,21.9,N/A,,Overcast,150,2013-01-12 09:36:00
12:56 AM,41.0,41.0,100,29.54,10.0,SSE,15.0,-,N/A,,Overcast,150,2013-01-12 09:56:00
1:16 AM,41.0,41.0,100,29.55,7.0,SE,11.5,-,N/A,,Overcast,140,2013-01-12 10:16:00
1:36 AM,41.0,41.0,100,29.52,4.0,SSE,12.7,21.9,N/A,,Overcast,150,2013-01-12 10:36:00
1:56 AM,41.0,41.0,100,29.51,7.0,SSE,13.8,17.3,N/A,,Overcast,150,2013-01-12 10:56:00
2:16 AM,41.0,41.0,100,29.51,10.0,SSE,13.8,20.7,N/A,,Overcast,150,2013-01-12 11:16:00
2:36 AM,41.0,41.0,100,29.51,9.0,SSE,10.4,16.1,N/A,,Overcast,160,2013-01-12 11:36:00
2:56 AM,39.2,39.2,100,29.51,7.0,SSE,9.2,-,N/A,,Overcast,150,2013-01-12 11:56:00
3:16 AM,41.0,41.0,100,29.49,5.0,SSE,11.5,-,N/A,,Overcast,150,2013-01-12 12:16:00
3:36 AM,39.2,39.2,100,29.48,5.0,SSE,8.1,-,N/A,,Overcast,150,2013-01-12 12:36:00
3:56 AM,39.2,39.2,100,29.48,7.0,SSE,9.2,16.1,N/A,,Overcast,150,2013-01-12 12:56:00
4:16 AM,39.2,39.2,100,29.49,7.0,SSE,9.2,-,N/A,,Overcast,150,2013-01-12 13:16:00
4:36 AM,41.0,39.2,93,29.47,10.0,SSE,11.5,18.4,N/A,,Overcast,150,2013-01-12 13:36:00
4:56 AM,41.0,41.0,100,29.46,8.0,SSE,11.5,-,N/A,,Overcast,150,2013-01-12 13:56:00
5:16 AM,39.2,39.2,100,29.44,7.0,SSE,12.7,21.9,N/A,,Overcast,150,2013-01-12 14:16:00
5:36 AM,41.0,39.2,93,29.44,10.0,SSE,15.0,21.9,N/A,,Overcast,150,2013-01-12 14:36:00
5:56 AM,39.2,39.2,100,29.44,3.0,South,18.4,-,N/A,,Overcast,170,2013-01-12 14:56:00
6:16 AM,39.2,39.2,100,29.41,3.0,SSE,18.4,-,N/A,,Overcast,160,2013-01-12 15:16:00
6:36 AM,39.2,39.2,100,29.39,5.0,South,21.9,-,N/A,,Overcast,170,2013-01-12 15:36:00
6:56 AM,39.2,39.2,100,29.39,5.0,SSE,18.4,-,N/A,,Overcast,160,2013-01-12 15:56:00
7:16 AM,41.0,41.0,100,29.38,5.0,SSE,18.4,21.9,N/A,,Overcast,150,2013-01-12 16:16:00
7:36 AM,41.0,41.0,100,29.37,5.0,SSE,21.9,27.6,N/A,,Overcast,160,2013-01-12 16:36:00
7:56 AM,41.0,39.2,93,29.37,3.0,SSE,25.3,31.1,N/A,,Overcast,160,2013-01-12 16:56:00
8:16 AM,41.0,39.2,93,29.36,3.0,South,25.3,31.1,N/A,,Overcast,170,2013-01-12 17:16:00
8:36 AM,41.0,41.0,100,29.36,3.0,South,27.6,32.2,N/A,,Overcast,170,2013-01-12 17:36:00
8:56 AM,42.8,42.8,100,29.36,3.0,South,28.8,-,N/A,,Overcast,170,2013-01-12 17:56:00
9:16 AM,41.0,41.0,100,29.36,2.5,South,26.5,32.2,N/A,,Overcast,170,2013-01-12 18:16:00
9:36 AM,41.0,39.2,93,29.36,4.0,South,29.9,34.5,N/A,,Overcast,170,2013-01-12 18:36:00
9:56 AM,41.0,39.2,93,29.36,2.5,SSE,28.8,-,N/A,,Overcast,160,2013-01-12 18:56:00
10:16 AM,41.0,41.0,100,29.36,2.5,South,33.4,-,N/A,,Overcast,170,2013-01-12 19:16:00
10:36 AM,41.0,41.0,100,29.37,3.0,South,31.1,38.0,N/A,,Overcast,170,2013-01-12 19:36:00
10:56 AM,42.8,41.0,93,29.37,2.0,SSE,31.1,36.8,N/A,,Overcast,160,2013-01-12 19:56:00
11:16 AM,42.8,41.0,93,29.36,1.8,SSE,28.8,35.7,N/A,,Overcast,160,2013-01-12 20:16:00
11:36 AM,42.8,41.0,93,29.38,1.2,SSE,28.8,34.5,N/A,,Overcast,160,2013-01-12 20:36:00
11:56 AM,42.8,41.0,93,29.39,1.2,SSE,25.3,34.5,N/A,,Overcast,160,2013-01-12 20:56:00
12:16 PM,42.8,42.8,100,29.39,1.8,SSE,26.5,38.0,N/A,,Overcast,160,2013-01-12 21:16:00
12:36 PM,42.8,42.8,100,29.39,1.2,SSE,27.6,36.8,N/A,,Overcast,160,2013-01-12 21:36:00
12:56 PM,42.8,42.8,100,29.38,2.0,SSE,28.8,33.4,N/A,,Overcast,160,2013-01-12 21:56:00
1:16 PM,42.8,42.8,100,29.38,2.5,SSE,23.0,29.9,N/A,,Overcast,160,2013-01-12 22:16:00
1:36 PM,42.8,42.8,100,29.40,2.5,SSE,25.3,32.2,N/A,,Overcast,160,2013-01-12 22:36:00
1:56 PM,42.8,42.8,100,29.40,2.5,SSE,23.0,32.2,N/A,,Overcast,160,2013-01-12 22:56:00
2:16 PM,42.8,41.0,93,29.39,2.5,SSE,21.9,29.9,N/A,,Overcast,160,2013-01-12 23:16:00
2:36 PM,41.0,41.0,100,29.39,2.5,SSE,23.0,-,N/A,,Overcast,160,2013-01-12 23:36:00
2:56 PM,42.8,41.0,93,29.39,2.5,SSE,25.3,29.9,N/A,,Overcast,160,2013-01-12 23:56:00
3:16 PM,42.8,42.8,100,29.39,2.0,SSE,24.2,28.8,N/A,,Overcast,160,2013-01-13 00:16:00
3:36 PM,42.8,41.0,93,29.40,2.0,SSE,25.3,32.2,N/A,,Overcast,160,2013-01-13 00:36:00
3:56 PM,41.0,41.0,100,29.41,2.0,SSE,21.9,27.6,N/A,,Overcast,160,2013-01-13 00:56:00
4:16 PM,42.8,41.0,93,29.42,2.0,South,24.2,31.1,N/A,,Overcast,170,2013-01-13 01:16:00
4:36 PM,41.0,41.0,100,29.42,2.0,SSE,19.6,-,N/A,,Overcast,160,2013-01-13 01:36:00
4:56 PM,41.0,41.0,100,29.43,2.0,South,23.0,-,N/A,,Overcast,170,2013-01-13 01:56:00
5:16 PM,41.0,41.0,100,29.43,2.0,South,19.6,25.3,N/A,,Overcast,170,2013-01-13 02:16:00
5:36 PM,41.0,41.0,100,29.44,2.0,SSE,20.7,-,N/A,,Overcast,160,2013-01-13 02:36:00
5:56 PM,41.0,39.2,93,29.44,1.5,SSE,15.0,-,N/A,,Overcast,150,2013-01-13 02:56:00
6:16 PM,39.2,39.2,100,29.44,1.5,SSE,17.3,27.6,N/A,,Overcast,160,2013-01-13 03:16:00
6:36 PM,41.0,41.0,100,29.45,1.5,South,21.9,27.6,N/A,,Overcast,170,2013-01-13 03:36:00
6:56 PM,41.0,41.0,100,29.46,2.0,South,20.7,34.5,N/A,,Overcast,170,2013-01-13 03:56:00
7:16 PM,41.0,39.2,93,29.45,2.0,South,20.7,-,N/A,,Overcast,170,2013-01-13 04:16:00
7:36 PM,41.0,39.2,93,29.46,2.0,South,24.2,32.2,N/A,,Overcast,170,2013-01-13 04:36:00
7:56 PM,39.2,39.2,100,29.46,2.0,South,25.3,31.1,N/A,,Overcast,170,2013-01-13 04:56:00
8:16 PM,39.2,39.2,100,29.47,3.0,South,25.3,31.1,N/A,,Overcast,170,2013-01-13 05:16:00
8:36 PM,39.2,39.2,100,29.48,3.0,South,23.0,31.1,N/A,,Overcast,170,2013-01-13 05:36:00
8:56 PM,39.2,39.2,100,29.48,2.0,South,25.3,32.2,N/A,,Overcast,170,2013-01-13 05:56:00
9:16 PM,39.2,39.2,100,29.48,2.0,South,25.3,34.5,N/A,,Overcast,170,2013-01-13 06:16:00
9:36 PM,39.2,39.2,100,29.49,2.5,South,25.3,32.2,N/A,,Overcast,170,2013-01-13 06:36:00
9:56 PM,39.2,39.2,100,29.51,4.0,South,24.2,34.5,N/A,,Overcast,170,2013-01-13 06:56:00
10:16 PM,41.0,41.0,100,29.52,5.0,South,26.5,32.2,N/A,,Overcast,170,2013-01-13 07:16:00
10:36 PM,41.0,41.0,100,29.51,5.0,SSE,24.2,31.1,N/A,,Overcast,160,2013-01-13 07:36:00
10:56 PM,41.0,41.0,100,29.51,5.0,South,28.8,35.7,N/A,,Overcast,180,2013-01-13 07:56:00
11:16 PM,42.8,42.8,100,29.51,5.0,South,29.9,39.1,N/A,,Overcast,190,2013-01-13 08:16:00
11:36 PM,42.8,41.0,93,29.53,5.0,South,28.8,39.1,N/A,,Overcast,180,2013-01-13 08:36:00
11:56 PM,42.8,41.0,93,29.53,6.0,South,31.1,41.4,N/A,,Overcast,180,2013-01-13 08:56:00